EW5196 Weather Reports


time (UTC)temp
C
wind
direction
speed
KPH
gust
KPH
rain 1hr
cm
rain 24hr
cm
rain mn
cm
humidity
%
barometer
mb
20260905184459 23 126 0.0 3.2 0.05 1.12 1.12 98 1013.6
20260905183957 23 187 3.2 3.2 0.13 1.12 1.12 98 1013.7
20260905183457 23 166 1.6 3.2 0.23 1.12 1.12 98 1013.4
20260905182951 23 165 0.0 3.2 0.43 1.09 1.09 97 1013.5
20260905182451 23 96 0.0 3.2 0.30 1.07 1.07 97 1013.7
20260905181946 22 214 1.6 4.8 0.05 1.04 1.04 97 1013.5
20260905181441 22 137 0.0 3.2 0.00 1.02 1.02 97 1013.0
20260905180940 23 78 1.6 3.2 0.00 1.02 1.02 96 1013.4
20260905180435 23 119 0.0 1.6 0.00 1.02 1.02 96 1013.6
20260905175930 23 91 1.6 3.2 0.00 1.02 1.02 95 1013.6
20260905175429 23 108 1.6 3.2 0.00 1.02 1.02 95 1013.6
20260905174925 23 137 1.6 3.2 0.00 1.02 1.02 95 1013.4
20260905174420 23 119 0.0 4.8 0.00 1.02 1.02 94 1013.7
20260905173916 22 194 0.0 3.2 0.00 1.02 1.02 95 1013.7
20260905173412 22 177 0.0 1.6 0.00 1.02 1.02 97 1013.9
20260905172907 22 185 3.2 3.2 0.00 1.02 1.02 98 1014.1
20260905172405 22 109 1.6 3.2 0.00 1.02 1.02 98 1013.8
20260905171901 22 109 1.6 4.8 0.00 1.02 1.02 97 1013.4
20260905171357 22 84 3.2 3.2 0.00 1.02 1.02 97 1013.7
20260905170854 22 77 0.0 3.2 0.00 1.02 1.02 97 1013.6
20260905170350 22 33 0.0 3.2 0.05 1.02 1.02 96 1013.9
20260905165848 21 210 0.0 3.2 0.13 1.02 1.02 96 1014.3
20260905165344 22 260 0.0 8.0 0.13 1.02 1.02 96 1014.9
20260905164838 22 217 0.0 4.8 0.13 0.99 0.99 96 1015.0
20260905164333 22 125 4.8 4.8 0.23 0.99 0.99 96 1015.4
20260905163828 22 113 0.0 12.9 0.79 0.99 0.99 96 1015.5
20260905163325 23 100 1.6 8.0 0.89 0.94 0.94 97 1015.3
20260905162821 23 149 1.6 3.2 0.71 0.84 0.84 96 1015.4
20260905162320 23 134 3.2 4.8 1.80 0.79 0.79 96 1015.5
20260905161815 23 157 3.2 4.8 2.82 0.71 0.71 95 1015.2
20260905161315 23 66 3.2 6.4 2.16 0.43 0.43 93 1015.2
20260905160812 24 140 4.8 8.0 0.97 0.18 0.18 92 1015.1
20260905160307 25 165 3.2 4.8 0.23 0.05 0.05 87 1014.9
20260905155801 26 236 0.0 3.2 0.13 0.03 0.03 85 1014.6
20260905155301 26 139 3.2 3.2 0.05 0.00 0.00 81 1014.3
20260905154754 26 156 3.2 8.0 0.00 0.00 0.00 79 1014.3
20260905154251 26 177 3.2 8.0 0.00 0.00 0.00 78 1013.7
20260905153746 26 176 4.8 4.8 0.00 0.00 0.00 79 1013.6
20260905153242 27 286 3.2 3.2 0.00 0.00 0.00 77 1013.8
20260905152736 27 123 0.0 1.6 0.00 0.00 0.00 76 1013.8
20260905152231 27 219 0.0 4.8 0.00 0.00 0.00 74 1013.9
20260905151730 27 261 4.8 8.0 0.00 0.00 0.00 74 1013.9
20260905151227 27 166 3.2 4.8 0.00 0.00 0.00 75 1014.1
20260905150726 27 292 0.0 8.0 0.00 0.00 0.00 74 1014.0
20260905150226 27 271 3.2 6.4 0.00 0.00 0.00 74 1013.9
20260905145723 27 249 4.8 4.8 0.00 0.00 0.00 74 1014.1
20260905145218 27 165 1.6 9.7 0.00 0.00 0.00 75 1014.2
20260905144717 27 184 0.0 6.4 0.00 0.00 0.00 76 1014.1
20260905144212 27 184 0.0 6.4 0.00 0.00 0.00 76 1014.1
20260905143711 27 207 4.8 11.3 0.00 0.00 0.00 73 1014.0
20260905143206 27 242 4.8 6.4 0.00 0.00 0.00 74 1013.8
20260905142704 28 203 0.0 6.4 0.00 0.00 0.00 73 1013.9
20260905142159 28 119 3.2 4.8 0.00 0.00 0.00 77 1013.8
20260905141654 28 128 3.2 3.2 0.00 0.00 0.00 76 1014.0
20260905141150 28 236 3.2 3.2 0.00 0.00 0.00 73 1013.9
20260905140645 28 161 0.0 3.2 0.00 0.00 0.00 74 1013.7
20260905140139 27 222 1.6 3.2 0.00 0.00 0.00 76 1013.8
20260905135634 27 237 1.6 4.8 0.00 0.00 0.00 77 1013.5
20260905135130 26 273 3.2 4.8 0.00 0.00 0.00 81 1013.7
20260905134624 25 126 4.8 4.8 0.00 0.00 0.00 84 1013.8
20260905134123 25 98 1.6 3.2 0.00 0.00 0.00 89 1013.7
20260905133619 24 223 4.8 6.4 0.00 0.00 0.00 98 1013.7
20260905133118 23 210 1.6 8.0 0.00 0.00 0.00 99 1013.2
20260905132618 23 220 3.2 6.4 0.00 0.00 0.00 99 1013.5
20260905132113 23 147 0.0 3.2 0.00 0.00 0.00 99 1013.5
20260905131608 23 147 0.0 1.6 0.00 0.00 0.00 99 1013.6
20260905131103 23 232 0.0 0.0 0.00 0.00 0.00 99 1013.4
20260905130603 22 184 0.0 1.6 0.00 0.00 0.00 99 1013.5
20260905130058 22 222 0.0 3.2 0.00 0.00 0.00 99 1013.4
20260905125557 22 194 0.0 1.6 0.00 0.00 0.00 99 1013.0
20260905125053 22 138 1.6 3.2 0.00 0.00 0.00 99 1013.2
20260905124549 22 175 0.0 0.0 0.00 0.00 0.00 99 1013.3
20260905124045 22 172 0.0 1.6 0.00 0.00 0.00 99 1013.5
20260905123540 22 147 0.0 0.0 0.00 0.00 0.00 99 1013.3
20260905123037 22 171 0.0 1.6 0.00 0.00 0.00 99 1013.4
20260905122536 22 136 0.0 1.6 0.00 0.00 0.00 99 1013.5
20260905122031 22 146 0.0 3.2 0.00 0.00 0.00 99 1013.7
20260905121526 21 149 1.6 3.2 0.00 0.00 0.00 99 1013.7
20260905121021 21 172 0.0 1.6 0.00 0.00 0.00 99 1013.5
20260905120521 21 134 0.0 1.6 0.00 0.00 0.00 99 1013.5
20260905120016 21 160 0.0 1.6 0.00 0.00 0.00 99 1013.6
20260905115515 21 137 0.0 1.6 0.00 0.00 0.00 99 1013.4
20260905115010 21 196 0.0 1.6 0.00 0.00 0.00 99 1013.2
20260905114509 21 178 1.6 3.2 0.00 0.00 0.00 99 1013.3
20260905114008 20 160 1.6 3.2 0.00 0.00 0.00 99 1013.2
20260905113504 20 144 1.6 3.2 0.00 0.00 0.00 99 1013.2
20260905112959 20 128 0.0 3.2 0.00 0.00 0.00 99 1013.4
20260905112454 20 144 0.0 3.2 0.00 0.00 0.00 99 1013.3
20260905111949 20 134 1.6 3.2 0.00 0.00 0.00 99 1013.3
20260905111444 20 159 0.0 0.0 0.00 0.00 0.00 99 1013.2
20260905110943 20 159 0.0 1.6 0.00 0.00 0.00 99 1013.2
20260905110442 20 146 1.6 1.6 0.00 0.00 0.00 99 1013.2
20260905105937 20 119 0.0 1.6 0.00 0.00 0.00 99 1013.2
20260905105432 20 138 0.0 1.6 0.00 0.00 0.00 99 1013.3
20260905104931 20 146 0.0 1.6 0.00 0.00 0.00 99 1013.0
20260905104422 20 130 1.6 3.2 0.00 0.00 0.00 99 1013.1
20260905103922 20 176 0.0 3.2 0.00 0.00 0.00 99 1013.2
20260905103417 20 141 1.6 3.2 0.00 0.00 0.00 99 1013.1
20260905102913 20 139 1.6 3.2 0.00 0.00 0.00 99 1013.0
20260905102409 20 157 1.6 3.2 0.00 0.00 0.00 99 1012.9
20260905101910 21 156 1.6 3.2 0.00 0.00 0.00 99 1012.8
20260905101408 21 159 0.0 3.2 0.00 0.00 0.00 99 1013.0
20260905100903 21 177 0.0 1.6 0.00 0.00 0.00 99 1012.8
20260905100359 21 172 0.0 3.2 0.00 0.00 0.00 99 1012.6
20260905095858 21 143 0.0 0.0 0.00 0.00 0.00 99 1012.6
20260905095352 21 119 0.0 0.0 0.00 0.00 0.00 99 1012.4
20260905094847 21 80 0.0 0.0 0.00 0.00 0.00 99 1012.7
20260905094343 21 80 0.0 0.0 0.00 0.00 0.00 99 1012.8
20260905093841 21 165 0.0 0.0 0.00 0.00 0.00 99 1012.6
20260905093337 21 154 0.0 0.0 0.00 0.00 0.00 99 1012.6
20260905092833 21 77 3.2 3.2 0.00 0.00 0.00 99 1012.7
20260905092333 21 74 0.0 0.0 0.00 0.00 0.00 99 1012.4
20260905091828 21 90 0.0 0.0 0.00 0.00 0.00 99 1012.5
20260905091328 21 134 1.6 3.2 0.00 0.00 0.00 99 1012.6
20260905090826 21 162 1.6 3.2 0.00 0.00 0.00 99 1012.2
20260905090323 21 67 1.6 3.2 0.00 0.00 0.00 99 1012.3
20260905085822 21 132 1.6 1.6 0.00 0.00 0.00 99 1012.3
20260905085316 21 92 0.0 1.6 0.00 0.00 0.00 99 1012.4
20260905084812 21 111 1.6 3.2 0.00 0.00 0.00 99 1012.4
20260905084311 21 96 0.0 1.6 0.00 0.00 0.00 99 1012.4
20260905083806 21 154 0.0 1.6 0.00 0.00 0.00 99 1012.6
20260905083302 21 132 0.0 1.6 0.00 0.00 0.00 99 1012.5
20260905082757 21 119 0.0 1.6 0.00 0.00 0.00 99 1012.5
20260905082254 21 119 0.0 0.0 0.00 0.00 0.00 99 1012.5
20260905081753 21 136 0.0 1.6 0.00 0.00 0.00 99 1012.7
20260905081249 21 172 0.0 0.0 0.00 0.00 0.00 99 1012.8
20260905080743 21 172 0.0 1.6 0.00 0.00 0.00 99 1012.8
20260905080242 21 126 1.6 1.6 0.00 0.00 0.00 99 1012.7
20260905075741 21 167 1.6 3.2 0.00 0.00 0.00 99 1012.8
20260905075241 21 172 0.0 3.2 0.00 0.00 0.00 99 1012.7
20260905074739 21 111 0.0 1.6 0.00 0.00 0.00 99 1012.8
20260905074236 21 113 1.6 3.2 0.00 0.00 0.00 99 1013.2
20260905073731 21 181 3.2 3.2 0.00 0.00 0.00 99 1012.9
20260905073227 21 181 3.2 3.2 0.00 0.00 0.00 99 1013.1
20260905072726 21 226 0.0 3.2 0.00 0.00 0.00 99 1013.0
20260905072221 21 147 0.0 1.6 0.00 0.00 0.00 99 1013.1
20260905071718 21 136 0.0 1.6 0.00 0.00 0.00 99 1013.2
20260905071214 21 119 0.0 1.6 0.00 0.00 0.00 99 1013.2
20260905070708 21 119 0.0 1.6 0.00 0.00 0.00 99 1013.2
20260905070204 21 147 0.0 1.6 0.00 0.00 0.00 99 1013.1
20260905065703 21 124 0.0 1.6 0.00 0.00 0.00 99 1013.4
20260905065157 21 159 0.0 1.6 0.00 0.00 0.00 99 1013.4
20260905064653 21 149 0.0 1.6 0.00 0.00 0.00 99 1013.3
20260905064148 21 128 0.0 3.2 0.00 0.00 0.00 99 1013.4
20260905063647 21 156 1.6 1.6 0.00 0.00 0.00 99 1013.4
20260905063143 21 146 0.0 3.2 0.00 0.00 0.00 99 1013.6
20260905062639 21 98 0.0 3.2 0.00 0.00 0.00 99 1013.5
20260905062138 21 84 0.0 1.6 0.00 0.00 0.00 99 1013.8
20260905061633 21 247 0.0 1.6 0.00 0.00 0.00 99 1013.3
20260905061132 21 159 0.0 0.0 0.00 0.00 0.00 99 1013.8
20260905060628 21 157 0.0 1.6 0.00 0.00 0.00 99 1013.6
20260905060124 21 130 0.0 3.2 0.00 0.00 0.00 99 1013.7
20260905055622 21 159 1.6 3.2 0.00 0.00 0.00 99 1014.0
20260905055118 21 181 0.0 3.2 0.00 0.00 0.00 99 1014.1
20260905054614 21 165 0.0 1.6 0.00 0.00 0.00 99 1014.0
20260905054109 21 156 0.0 1.6 0.00 0.00 0.00 99 1014.1
20260905053609 21 125 0.0 1.6 0.00 0.00 0.00 99 1014.2
20260905053104 21 177 1.6 3.2 0.00 0.00 0.00 99 1014.6
20260905052603 21 180 0.0 1.6 0.00 0.00 0.00 99 1014.3
20260905052058 21 172 0.0 3.2 0.00 0.00 0.00 99 1014.5
20260905051554 21 141 0.0 0.0 0.00 0.00 0.00 99 1014.5
20260905051050 21 172 0.0 1.6 0.00 0.00 0.00 99 1014.8
20260905050546 21 221 1.6 3.2 0.00 0.00 0.00 99 1015.0
20260905050043 21 178 0.0 3.2 0.00 0.00 0.00 99 1014.7
20260905045537 21 149 3.2 3.2 0.00 0.00 0.00 99 1015.1
20260905045033 21 153 1.6 1.6 0.00 0.00 0.00 99 1015.3
20260905044532 21 207 0.0 1.6 0.00 0.00 0.00 99 1015.1
20260905044027 21 119 0.0 1.6 0.00 0.00 0.00 99 1015.4
20260905043526 21 172 0.0 1.6 0.00 0.00 0.00 99 1015.3
20260905043022 21 165 0.0 3.2 0.00 0.00 0.00 99 1015.0
20260905042520 21 146 1.6 3.2 0.00 0.00 0.00 99 1015.3
20260905042016 21 150 0.0 3.2 0.00 0.00 0.00 99 1015.4
20260905041511 21 147 0.0 0.0 0.00 0.00 0.00 99 1015.3
20260905041007 21 260 0.0 0.0 0.00 0.00 0.00 99 1015.4
20260905040506 21 147 0.0 1.6 0.00 0.00 0.00 99 1015.3
20260905040005 21 172 0.0 1.6 0.05 0.89 0.89 99 1015.3
20260905035500 22 147 0.0 1.6 0.05 0.89 0.89 99 1015.5
20260905034957 22 133 0.0 1.6 0.00 0.86 0.86 99 1015.6
20260905034452 22 162 0.0 0.0 0.00 0.86 0.86 99 1015.4
20260905033946 22 196 0.0 0.0 0.00 0.86 0.86 99 1015.7
20260905033445 22 159 0.0 3.2 0.00 0.86 0.86 99 1015.7
20260905032940 22 177 0.0 1.6 0.00 0.86 0.86 99 1015.5
20260905032436 22 80 0.0 0.0 0.00 0.86 0.86 99 1015.5
20260905031930 22 159 0.0 1.6 0.00 0.86 0.86 99 1015.6
20260905031426 22 136 0.0 1.6 0.00 0.86 0.86 99 1015.5
20260905030921 22 188 0.0 3.2 0.00 0.86 0.86 99 1015.3
20260905030417 22 90 0.0 1.6 0.00 0.86 0.86 99 1015.5
20260905025916 22 125 0.0 1.6 0.00 0.86 0.86 99 1015.0
20260905025411 22 196 3.2 3.2 0.00 0.86 0.86 99 1015.3
20260905024908 22 50 3.2 3.2 0.00 0.86 0.86 99 1015.2
20260905024402 22 172 0.0 1.6 0.00 0.86 0.86 99 1015.3
20260905023858 22 217 0.0 4.8 0.00 0.86 0.86 99 1015.3
20260905023353 22 147 0.0 1.6 0.00 0.86 0.86 99 1015.5
20260905022852 22 85 0.0 1.6 0.00 0.86 0.86 99 1015.6
20260905022347 22 105 1.6 3.2 0.00 0.86 0.86 99 1015.6
20260905021847 22 174 0.0 3.2 0.00 0.86 0.86 99 1015.7
20260905021343 22 142 1.6 3.2 0.00 0.86 0.86 99 1015.7
20260905020838 22 82 1.6 3.2 0.00 0.86 0.86 99 1015.5
20260905020333 22 43 3.2 3.2 0.00 0.86 0.86 99 1015.7
20260905015832 22 91 0.0 1.6 0.00 0.86 0.86 99 1015.8
20260905015331 22 67 0.0 3.2 0.00 0.86 0.86 99 1015.5
20260905014831 22 159 0.0 3.2 0.00 0.86 0.86 99 1015.7
20260905014326 22 109 0.0 1.6 0.00 0.86 0.86 99 1015.5
20260905013821 22 119 0.0 3.2 0.00 0.86 0.86 99 1015.2
20260905013318 22 78 0.0 1.6 0.00 0.86 0.86 99 1015.3
20260905012813 22 88 0.0 1.6 0.00 0.86 0.86 99 1015.0
20260905012308 22 41 0.0 3.2 0.00 0.86 0.86 99 1015.1
20260905011805 22 92 0.0 3.2 0.00 0.86 0.86 99 1014.8
20260905011301 22 71 0.0 1.6 0.00 0.86 0.86 98 1014.8
20260905010801 22 116 0.0 1.6 0.00 0.86 0.86 98 1014.8
20260905010255 22 124 0.0 1.6 0.00 0.86 0.86 98 1014.6
20260905005752 22 184 3.2 3.2 0.00 0.86 0.86 98 1014.5
20260905005253 22 184 0.0 4.8 0.00 0.86 0.86 98 1014.6
20260905004752 22 138 0.0 3.2 0.00 0.86 0.86 98 1014.5
20260905004247 22 156 0.0 3.2 0.00 0.86 0.86 98 1014.4
20260905003742 22 148 0.0 3.2 0.00 0.86 0.86 98 1014.3
20260905003238 22 174 0.0 3.2 0.00 0.86 0.86 98 1014.1
20260905002733 22 59 1.6 3.2 0.00 0.86 0.86 98 1013.8
20260905002228 22 198 1.6 4.8 0.00 0.86 0.86 98 1014.4
20260905001723 22 224 3.2 4.8 0.00 0.86 0.86 98 1014.0
20260905001222 22 199 1.6 4.8 0.00 0.86 0.86 98 1013.9
20260905000718 22 236 1.6 3.2 0.00 0.86 0.86 98 1013.6
20260905000213 22 76 0.0 1.6 0.00 0.86 0.86 98 1013.6
20260904235708 22 169 3.2 4.8 0.00 0.86 0.86 98 1013.8
20260904235203 22 204 1.6 3.2 0.00 0.86 0.86 98 1014.0
20260904234657 22 205 1.6 3.2 0.00 0.86 0.86 98 1014.0
20260904234153 22 135 4.8 4.8 0.00 0.86 0.86 98 1013.9
20260904233648 22 169 1.6 1.6 0.00 0.86 0.86 98 1013.5
20260904233144 22 51 1.6 3.2 0.00 0.86 0.86 97 1014.1
20260904232641 22 60 3.2 3.2 0.00 0.86 0.86 97 1014.6
20260904232137 22 42 3.2 3.2 0.00 0.86 0.86 97 1014.8
20260904231632 22 37 1.6 3.2 0.05 0.86 0.86 97 1014.9
20260904231127 22 87 3.2 3.2 0.05 0.86 0.86 97 1015.5
20260904230626 22 78 1.6 4.8 0.00 0.86 0.86 96 1015.9
20260904230122 22 207 3.2 8.0 0.13 0.86 0.86 95 1016.0
20260904225619 22 68 0.0 1.6 0.79 0.86 0.86 94 1015.3
20260904225114 23 44 1.6 4.8 0.79 0.84 0.84 94 1015.2
20260904224609 23 179 0.0 4.8 0.05 0.71 0.71 95 1015.0
20260904224104 23 193 4.8 4.8 0.00 0.71 0.71 95 1015.2
20260904223603 23 121 1.6 4.8 0.00 0.71 0.71 94 1015.5
20260904223059 23 48 0.0 4.8 0.00 0.71 0.71 94 1015.5
20260904222554 23 88 4.8 9.7 0.00 0.71 0.71 96 1015.8
20260904222050 23 228 3.2 4.8 0.00 0.71 0.71 96 1016.0
20260904221549 23 172 4.8 6.4 0.00 0.71 0.71 96 1016.0
20260904221044 23 177 0.0 1.6 0.00 0.71 0.71 95 1015.8
20260904220544 23 186 1.6 4.8 0.00 0.71 0.71 95 1016.1
20260904220040 23 154 3.2 4.8 0.36 0.71 0.71 94 1015.7
20260904215540 23 182 3.2 4.8 3.00 0.69 0.69 93 1016.0
20260904215036 23 279 4.8 4.8 3.25 0.56 0.56 89 1015.8
20260904214531 25 148 1.6 8.0 0.71 0.13 0.13 81 1015.9
20260904214027 26 158 11.3 14.5 0.00 0.00 0.00 71 1015.4
20260904213524 26 178 6.4 20.9 0.00 0.00 0.00 68 1014.6
20260904213022 27 306 8.0 37.0 0.00 0.00 0.00 67 1014.6
20260904212521 28 267 11.3 22.5 0.00 0.00 0.00 64 1014.2
20260904212016 29 280 8.0 19.3 0.00 0.00 0.00 64 1014.5
20260904211516 31 254 12.9 25.7 0.00 0.00 0.00 61 1014.3
20260904211012 33 228 6.4 11.3 0.00 0.00 0.00 64 1014.3
20260904210511 33 237 3.2 4.8 0.00 0.00 0.00 63 1013.3
20260904210007 33 254 0.0 1.6 0.00 0.00 0.00 61 1013.1
20260904205502 33 258 3.2 3.2 0.00 0.00 0.00 61 1013.5
20260904204959 33 253 0.0 0.0 0.00 0.00 0.00 58 1013.4
20260904204454 33 272 0.0 0.0 0.00 0.00 0.00 58 1013.3
20260904203950 33 285 0.0 3.2 0.00 0.00 0.00 56 1013.1
20260904203446 33 312 0.0 1.6 0.00 0.00 0.00 60 1013.0
20260904202942 33 321 0.0 3.2 0.00 0.00 0.00 60 1013.1
20260904202438 33 229 1.6 1.6 0.00 0.00 0.00 61 1013.0
20260904201934 32 323 0.0 0.0 0.00 0.00 0.00 62 1012.9
20260904201429 32 261 0.0 1.6 0.00 0.00 0.00 62 1013.0
20260904200924 33 150 0.0 1.6 0.00 0.00 0.00 61 1013.0
20260904200422 33 171 0.0 0.0 0.00 0.00 0.00 59 1013.2
20260904195918 33 272 0.0 1.6 0.00 0.00 0.00 57 1013.4
20260904195415 33 260 0.0 1.6 0.00 0.00 0.00 58 1013.5
20260904194910 33 247 0.0 1.6 0.00 0.00 0.00 58 1013.6
20260904194410 34 229 0.0 1.6 0.00 0.00 0.00 56 1013.8
20260904193905 35 254 0.0 1.6 0.00 0.00 0.00 55 1013.8
20260904193400 35 230 3.2 3.2 0.00 0.00 0.00 53 1013.6
20260904192855 35 330 3.2 3.2 0.00 0.00 0.00 50 1013.6
20260904192351 36 2 3.2 3.2 0.00 0.00 0.00 48 1013.7
20260904191847 36 239 1.6 8.0 0.00 0.00 0.00 47 1013.8
20260904191344 37 258 4.8 6.4 0.00 0.00 0.00 48 1013.8
20260904190840 36 245 3.2 6.4 0.00 0.00 0.00 49 1014.1
20260904190335 36 305 1.6 4.8 0.00 0.00 0.00 49 1013.9
20260904185832 36 163 6.4 6.4 0.00 0.00 0.00 49 1014.0
20260904185327 36 263 3.2 4.8 0.00 0.00 0.00 48 1014.3
20260904184826 35 262 3.2 4.8 0.00 0.00 0.00 50 1014.5